[[{"header":{"parameterUnit":"m.s-1","parameterCategory":2,"la1":30.2991,"la2":30.254,"lo1":-89.0895,"lo2":-89.0444,"dy":0.0017,"dx":0.0017,"nx":28,"ny":28,"refTime":"2024-03-15T21:00:00:Z","depth":"0","parameterNumber":2,"parameterNumberName":"U-component_of_CURRENTS"},"data":[0,0,0,0,0,0,0,0,0,0,0,0,0,0,0,0,0,0,0,0,0,0,0,0,0,0,0,0,0,0,0,0,0,0,0,0,0,0,0,0,0,0,0,0,0,0,0,0,0,0,0,0,0,0,0,0,0,0,0.1807,0.1807,0,0.1823,0.1824,0.1824,0.1833,0.1833,0.1833,0.1833,0.1854,0.1854,0.1855,0,0,0,0,0,0,0,0,0,0,0,0,0,0.1747,0.1748,0.1807,0.1807,0.1807,0.1823,0.1824,0.1824,0.1833,0.1833,0.1833,0.1833,0.1854,0.1854,0.1855,0,0,0,0,0,0,0,0,0,0,0,0,0,0.1769,0.1748,0.1807,0.1813,0.1814,0.1823,0.1824,0.1824,0.1833,0.1833,0.1833,0.1833,0.1854,0.1854,0.1855,0.1861,0,0,0.1858,0.1858,0,0,0,0,0,0,0,0,0.1768,0.1771,0.1812,0.1813,0.1814,0.1826,0.181,0.1836,0.1833,0.1826,0.1833,0.1833,0.1845,0.1846,0.185,0.1862,0.1863,0.1858,0.1858,0.1859,0.1859,0,0,0,0,0,0,0,0.1766,0.1771,0.1814,0.1812,0.1813,0.1803,0.1806,0.1815,0.1835,0.1826,0.1827,0.1828,0.1845,0.1849,0.185,0.1863,0.1858,0.1859,0.1859,0.186,0.1859,0.1858,0,0,0,0,0,0,0.1766,0.177,0.1813,0.1814,0.179,0.1804,0.1808,0.1822,0.1835,0.1837,0.1828,0.1829,0.1847,0.1849,0.1851,0.184,0.1859,0.186,0.186,0.1859,0.1859,0.1858,0,0,0,0,0,0,0.1765,0.177,0.1812,0.1791,0.1796,0.1805,0.1821,0.1822,0.1824,0.1837,0.1839,0.1828,0.1848,0.185,0.1857,0.1842,0.186,0.1861,0.186,0.1859,0.1858,0.183,0,0,0,0,0,0,0.1763,0.177,0.1773,0.1792,0.1797,0.182,0.1821,0.1823,0.1825,0.1825,0.1837,0.1839,0.1848,0.1856,0.1858,0.1843,0.1861,0.1861,0.186,0.1859,0.1832,0.1829,0.1826,0,0,0,0,0,0.1761,0.1757,0.1773,0.1778,0.1803,0.182,0.1822,0.1828,0.1825,0.1828,0.1833,0.1839,0.185,0.1856,0.1859,0.1844,0.1861,0.186,0.1859,0.1833,0.1829,0.1826,0,0,0,0,0,0,0.1714,0.1759,0.1776,0.1782,0.1804,0.1821,0.1814,0.1825,0.1832,0.1827,0.1839,0.1842,0.1845,0.1848,0.1854,0.184,0.1854,0.1853,0.1833,0.183,0.1827,0.1831,0.1862,0,0,0,0,0,0.1712,0.1731,0.1767,0.177,0.178,0.1799,0.1803,0.1814,0.1824,0.1826,0.1837,0.1839,0.1842,0.1839,0.1849,0.1842,0.1848,0.1831,0.1828,0.1826,0.183,0.1819,0.1815,0.1854,0.1854,0.1854,0,0,0.1687,0.1718,0.1723,0.1763,0.1775,0.1786,0.1801,0.1807,0.1813,0.1827,0.183,0.1838,0.1841,0.1836,0.1835,0.1835,0.1818,0.1824,0.1822,0.1828,0.1817,0.1814,0.181,0.1853,0.1853,0.1854,0,0,0.1655,0.1683,0.1693,0.1717,0.1748,0.1764,0.1768,0.1793,0.1802,0.1814,0.1819,0.1818,0.1826,0.1821,0.1819,0.1804,0.1811,0.1801,0.1779,0.1768,0.1764,0.1762,0.1767,0.1765,0.1788,0.1788,0.1788,0,0.1621,0.1654,0.1693,0.1711,0.1723,0.1754,0.1761,0.1774,0.1798,0.18,0.1812,0.1812,0.1818,0.1798,0.1794,0.1797,0.1798,0.1792,0.1764,0.1761,0.1759,0.1765,0.1763,0.1787,0.1787,0.1787,0.1787,0,0.1611,0.1633,0.1634,0.1679,0.1694,0.1703,0.1736,0.1746,0.176,0.1774,0.1775,0.1785,0.1782,0.1777,0.1784,0.1761,0.1771,0.1769,0.1773,0.1753,0.1761,0.176,0.1784,0.1785,0.1785,0.1786,0,0,0.1544,0.1616,0.1615,0.164,0.1683,0.1694,0.1701,0.1721,0.1721,0.1739,0.1736,0.1737,0.1745,0.1743,0.1744,0.1731,0.172,0.1741,0.1741,0.1748,0.1705,0.1681,0.1677,0.1709,0.1708,0.1708,0.1718,0,0.1524,0.1563,0.1598,0.1613,0.1636,0.1665,0.1673,0.169,0.1707,0.1712,0.1715,0.1718,0.1729,0.1726,0.1715,0.1722,0.1714,0.1718,0.1723,0.1723,0.1705,0.1674,0.1553,0.1548,0.1717,0.1717,0.1716,0,0.151,0.1544,0.1567,0.1612,0.1619,0.1624,0.1643,0.1653,0.1664,0.1677,0.1673,0.1687,0.1676,0.1692,0.1686,0.1687,0.1697,0.1703,0.1703,0.1691,0.1696,0.1595,0.154,0.1287,0.1714,0.1715,0.1715,0,0.1479,0.1519,0.1543,0.1558,0.1605,0.1606,0.1619,0.1637,0.1644,0.165,0.1651,0.165,0.1648,0.1654,0.1669,0.1677,0.1667,0.1678,0.1668,0.1667,0.1571,0.1562,0.1272,0.1676,0.1676,0.1676,0.1676,0,0.1467,0.1483,0.153,0.1545,0.1554,0.1587,0.1591,0.1602,0.1612,0.1608,0.1627,0.162,0.1638,0.1638,0.1656,0.1651,0.1654,0.1662,0.166,0.1559,0.1549,0.1334,0.1292,0.1676,0.1676,0.1676,0.1676,0,0.145,0.1481,0.1509,0.1544,0.1548,0.1556,0.1577,0.1581,0.1589,0.1583,0.1582,0.1592,0.159,0.1608,0.1618,0.1627,0.1541,0.1631,0.152,0.1505,0.1271,0.1237,0.1152,0.115,0.1625,0.1624,0.1624,0,0.1453,0.1468,0.1501,0.1511,0.1528,0.1542,0.1551,0.1565,0.1568,0.1561,0.1552,0.155,0.1547,0.1551,0.1557,0.1574,0.1489,0.1473,0.1468,0.1222,0.1183,0.122,0.1228,0.1334,0.1331,0.1329,0.1327,0,0.1453,0.1463,0.1488,0.1511,0.1519,0.1524,0.1534,0.153,0.1537,0.1529,0.1513,0.1506,0.1501,0.1459,0.147,0.1453,0.1321,0.1428,0.1177,0.0933,0.0951,0.0958,0.1378,0.1306,0.1308,0.1309,0.1311,0.1311,0.1446,0.1462,0.1493,0.1511,0.1522,0.1511,0.1502,0.1502,0.1489,0.1447,0.1472,0.1414,0.1321,0.1321,0.129,0.102,0.121,0.0904,0.089,0.0954,0.0913,0.1304,0.1227,0.1229,0.123,0.1231,0.1232,0,0.144,0.1467,0.149,0.1515,0.1523,0.1519,0.1497,0.1464,0.1437,0.1375,0.1361,0.1176,0.1027,0.0886,0.0601,0.0438,0.0516,0.033,0.0269,0.032,0.0608,0.0543,0.0306,0.0306,0.0306,0.0307,0.0307,0.0307,0.1439,0.1466,0.1483,0.1506,0.1519,0.1489,0.1459,0.1391,0.1328,0.1161,0.1023,0.0975,0.0587,0.007,-0.0303,-0.0259,-0.0311,-0.0254,-0.0199,-0.0173,-0.0124,-0.0078,-0.0162,-0.0543,-0.0543,-0.0514,-0.0515,-0.0516]},{"header":{"parameterUnit":"m.s-1","parameterCategory":2,"la1":30.2991,"la2":30.254,"lo1":-89.0895,"lo2":-89.0444,"dy":0.0017,"dx":0.0017,"nx":28,"ny":28,"refTime":"2024-03-15T21:00:00:Z","depth":"0","parameterNumber":3,"parameterNumberName":"V-component_of_CURRENTS"},"data":[0,0,0,0,0,0,0,0,0,0,0,0,0,0,0,0,0,0,0,0,0,0,0,0,0,0,0,0,0,0,0,0,0,0,0,0,0,0,0,0,0,0,0,0,0,0,0,0,0,0,0,0,0,0,0,0,0,0,-0.1011,-0.1011,0,-0.1023,-0.1023,-0.1022,-0.098,-0.098,-0.0979,-0.0978,-0.0912,-0.0911,-0.091,0,0,0,0,0,0,0,0,0,0,0,0,0,-0.0868,-0.0871,-0.101,-0.1011,-0.1012,-0.1023,-0.1023,-0.1022,-0.098,-0.098,-0.0979,-0.0978,-0.0913,-0.0911,-0.091,0,0,0,0,0,0,0,0,0,0,0,0,0,-0.0904,-0.0872,-0.101,-0.0997,-0.0997,-0.1023,-0.1023,-0.1022,-0.0981,-0.098,-0.0979,-0.0978,-0.0913,-0.0912,-0.091,-0.0919,0,0,-0.0905,-0.0904,0,0,0,0,0,0,0,0,-0.0902,-0.0908,-0.0999,-0.0998,-0.0998,-0.1005,-0.0949,-0.0986,-0.0981,-0.098,-0.0978,-0.0977,-0.0941,-0.0937,-0.0933,-0.0916,-0.0913,-0.0905,-0.0903,-0.0903,-0.0902,0,0,0,0,0,0,0,-0.09,-0.0907,-0.1008,-0.1,-0.0999,-0.0963,-0.0967,-0.0955,-0.0959,-0.098,-0.0978,-0.0991,-0.0939,-0.0935,-0.0931,-0.0912,-0.0905,-0.0903,-0.0902,-0.0901,-0.0889,-0.0889,0,0,0,0,0,0,-0.0918,-0.0906,-0.1008,-0.101,-0.0954,-0.0968,-0.0972,-0.0998,-0.0961,-0.0957,-0.0992,-0.0989,-0.0938,-0.0933,-0.0929,-0.093,-0.0903,-0.0901,-0.09,-0.0888,-0.0889,-0.0889,0,0,0,0,0,0,-0.0915,-0.0927,-0.1008,-0.0962,-0.097,-0.0972,-0.1002,-0.0999,-0.0995,-0.0972,-0.0965,-0.0991,-0.0937,-0.0931,-0.092,-0.0928,-0.09,-0.0899,-0.0887,-0.0888,-0.0889,-0.0938,0,0,0,0,0,0,-0.0911,-0.0927,-0.0939,-0.0964,-0.0974,-0.1032,-0.1003,-0.1,-0.1008,-0.1004,-0.097,-0.0963,-0.0936,-0.0923,-0.0919,-0.0925,-0.0897,-0.0886,-0.0888,-0.0889,-0.0935,-0.094,-0.0945,0,0,0,0,0,-0.0906,-0.0929,-0.094,-0.0952,-0.0997,-0.1033,-0.1035,-0.1026,-0.1009,-0.1016,-0.0989,-0.0964,-0.0928,-0.0923,-0.0917,-0.0923,-0.0886,-0.0887,-0.0889,-0.0933,-0.0939,-0.0945,0,0,0,0,0,0,-0.0855,-0.0929,-0.0941,-0.098,-0.1011,-0.1029,-0.1033,-0.1033,-0.1018,-0.1007,-0.0974,-0.0966,-0.0957,-0.0938,-0.0933,-0.0924,-0.0902,-0.0903,-0.0938,-0.0944,-0.0948,-0.0956,-0.0896,0,0,0,0,0,-0.086,-0.0905,-0.0957,-0.0986,-0.1007,-0.1022,-0.1031,-0.1034,-0.1034,-0.1025,-0.1007,-0.0981,-0.0961,-0.0951,-0.0933,-0.0932,-0.0914,-0.0932,-0.0937,-0.0941,-0.0944,-0.0934,-0.0938,-0.0895,-0.0895,-0.0895,0,0,-0.0845,-0.0893,-0.0914,-0.098,-0.0999,-0.1031,-0.1023,-0.1048,-0.1062,-0.1021,-0.1022,-0.0998,-0.0965,-0.0959,-0.0954,-0.0943,-0.0944,-0.0943,-0.0946,-0.0948,-0.0936,-0.094,-0.0943,-0.0896,-0.0895,-0.0895,0,0,-0.0844,-0.0887,-0.0926,-0.0963,-0.1015,-0.1032,-0.1046,-0.1076,-0.1076,-0.1087,-0.1053,-0.1038,-0.1018,-0.0995,-0.0978,-0.1001,-0.0969,-0.0995,-0.1024,-0.1014,-0.1017,-0.102,-0.1003,-0.1004,-0.0997,-0.0997,-0.0998,0,-0.0816,-0.0885,-0.0935,-0.0981,-0.1009,-0.1038,-0.1071,-0.1083,-0.1101,-0.1101,-0.1093,-0.1059,-0.1034,-0.1015,-0.1023,-0.1011,-0.0999,-0.1004,-0.102,-0.1023,-0.1024,-0.1006,-0.1006,-0.1,-0.1,-0.0999,-0.0999,0,-0.0854,-0.0901,-0.0926,-0.1002,-0.1034,-0.107,-0.1111,-0.1129,-0.1135,-0.1141,-0.1136,-0.1109,-0.1085,-0.1078,-0.1057,-0.1056,-0.104,-0.1027,-0.1006,-0.1032,-0.1011,-0.101,-0.1004,-0.1003,-0.1002,-0.1001,0,0,-0.0808,-0.0929,-0.0935,-0.0976,-0.1052,-0.1083,-0.1117,-0.1155,-0.1165,-0.1176,-0.1179,-0.1157,-0.1142,-0.1123,-0.1096,-0.1091,-0.1094,-0.1071,-0.1069,-0.1054,-0.1069,-0.1001,-0.0993,-0.1085,-0.1086,-0.1086,-0.1048,0,-0.0817,-0.0906,-0.0962,-0.1024,-0.1073,-0.1116,-0.1147,-0.1178,-0.1192,-0.1201,-0.1183,-0.1171,-0.1159,-0.1142,-0.114,-0.1098,-0.1095,-0.1105,-0.1046,-0.1044,-0.098,-0.0991,-0.0884,-0.0837,-0.1048,-0.1047,-0.1047,0,-0.0837,-0.0899,-0.0969,-0.1058,-0.108,-0.1111,-0.1163,-0.1191,-0.1212,-0.122,-0.1214,-0.1199,-0.1184,-0.1172,-0.1136,-0.1143,-0.1116,-0.1091,-0.1089,-0.1007,-0.0974,-0.0845,-0.0828,-0.0686,-0.1046,-0.1046,-0.1046,0,-0.0803,-0.0901,-0.0958,-0.0991,-0.1088,-0.1111,-0.1149,-0.1186,-0.1203,-0.1219,-0.1221,-0.1212,-0.1191,-0.1172,-0.1125,-0.1132,-0.1082,-0.1079,-0.0996,-0.099,-0.0878,-0.0861,-0.0714,-0.1064,-0.1064,-0.1064,-0.1065,0,-0.081,-0.0855,-0.0945,-0.098,-0.1022,-0.1093,-0.1125,-0.1158,-0.119,-0.1197,-0.1217,-0.1211,-0.1193,-0.1161,-0.1131,-0.1052,-0.1084,-0.0999,-0.0976,-0.0891,-0.0877,-0.073,-0.0662,-0.1063,-0.1063,-0.1064,-0.1064,0,-0.078,-0.0846,-0.0909,-0.0997,-0.1014,-0.104,-0.1106,-0.1125,-0.1166,-0.1171,-0.1174,-0.1197,-0.1163,-0.1133,-0.1086,-0.1037,-0.0882,-0.0947,-0.0844,-0.0809,-0.0596,-0.0536,-0.0407,-0.0353,-0.0849,-0.0847,-0.0846,0,-0.0779,-0.0811,-0.0893,-0.0911,-0.095,-0.0996,-0.1024,-0.1092,-0.1111,-0.1154,-0.1148,-0.1138,-0.1117,-0.1027,-0.0941,-0.0863,-0.0796,-0.0714,-0.0708,-0.0561,-0.0477,-0.048,-0.0446,-0.058,-0.0576,-0.0573,-0.0571,0,-0.0759,-0.0786,-0.0833,-0.0872,-0.0902,-0.0938,-0.0984,-0.0998,-0.1066,-0.107,-0.1077,-0.1066,-0.0996,-0.0857,-0.0754,-0.0703,-0.0569,-0.0649,-0.0519,-0.0267,-0.0237,-0.0181,-0.063,-0.0544,-0.0547,-0.0549,-0.055,-0.0551,-0.072,-0.074,-0.0792,-0.0828,-0.086,-0.0882,-0.089,-0.0925,-0.0938,-0.0925,-0.097,-0.0908,-0.0748,-0.0593,-0.0521,-0.0272,-0.0375,-0.019,-0.0135,-0.016,-0.0078,-0.0465,-0.034,-0.0341,-0.0342,-0.0344,-0.0345,0,-0.0675,-0.0711,-0.0744,-0.0791,-0.0809,-0.0838,-0.0864,-0.0858,-0.0842,-0.0801,-0.0781,-0.0591,-0.0366,-0.021,0.01,0.0248,0.0224,0.0308,0.0348,0.0348,0.0008,0.0053,0.0297,0.0297,0.0297,0.0297,0.0297,0.0297,-0.065,-0.0679,-0.0714,-0.0737,-0.0758,-0.0755,-0.0755,-0.0734,-0.0705,-0.0573,-0.0452,-0.0409,-0.0163,0.0395,0.0717,0.0727,0.0812,0.0812,0.0798,0.0615,0.0572,0.0531,0.059,0.0943,0.0944,0.1125,0.1128,0.113]}],[{"header":{"parameterUnit":"m.s-1","parameterCategory":2,"la1":30.2991,"la2":30.254,"lo1":-89.0895,"lo2":-89.0444,"dy":0.0017,"dx":0.0017,"nx":28,"ny":28,"refTime":"2024-03-15T21:00:00:Z","depth":"2","parameterNumber":2,"parameterNumberName":"U-component_of_CURRENTS"},"data":[0,0,0,0,0,0,0,0,0,0,0,0,0,0,0,0,0,0,0,0,0,0,0,0,0,0,0,0,0,0,0,0,0,0,0,0,0,0,0,0,0,0,0,0,0,0,0,0,0,0,0,0,0,0,0,0,0,0,0.0392,0.0392,0,0.0404,0.0404,0.0404,0.043,0.0431,0.0431,0.0432,0.0458,0.0458,0.0458,0,0,0,0,0,0,0,0,0,0,0,0,0,0.0407,0.0406,0.0392,0.0392,0.0393,0.0404,0.0404,0.0404,0.043,0.0431,0.0432,0.0432,0.0458,0.0458,0.0458,0,0,0,0,0,0,0,0,0,0,0,0,0,0.0406,0.0406,0.0392,0.0408,0.041,0.0404,0.0404,0.0404,0.043,0.0431,0.0432,0.0433,0.0458,0.0458,0.0458,0.0439,0,0,0.0458,0.0458,0,0,0,0,0,0,0,0,0.0406,0.0406,0.0405,0.0407,0.0409,0.0417,0.0418,0.0417,0.043,0.0421,0.0432,0.0433,0.0446,0.0447,0.0445,0.0441,0.0442,0.0458,0.0458,0.0459,0.0459,0,0,0,0,0,0,0,0.0406,0.0405,0.0396,0.0406,0.0408,0.0419,0.042,0.0418,0.0427,0.0422,0.0424,0.0427,0.0447,0.0445,0.0446,0.0442,0.0458,0.0458,0.0459,0.0459,0.0476,0.0476,0,0,0,0,0,0,0.0405,0.0405,0.0395,0.0396,0.0411,0.0418,0.0419,0.0413,0.0427,0.043,0.0426,0.0428,0.0444,0.0446,0.0447,0.0472,0.0459,0.0459,0.0459,0.0475,0.0476,0.0476,0,0,0,0,0,0,0.0405,0.0404,0.0395,0.0402,0.0402,0.0417,0.041,0.0412,0.0428,0.043,0.0434,0.044,0.0445,0.0447,0.0462,0.0471,0.0459,0.0459,0.0475,0.0476,0.0476,0.0492,0,0,0,0,0,0,0.0405,0.0403,0.0403,0.0402,0.0402,0.0402,0.0409,0.0412,0.0427,0.043,0.0443,0.0446,0.0446,0.0461,0.0462,0.0471,0.0459,0.0475,0.0475,0.0476,0.0491,0.0493,0.0495,0,0,0,0,0,0.0405,0.0403,0.0403,0.0402,0.0399,0.0402,0.0404,0.0417,0.0427,0.0434,0.0446,0.0446,0.0466,0.0462,0.0462,0.0472,0.0474,0.0475,0.0476,0.049,0.0493,0.0495,0,0,0,0,0,0,0.0419,0.0405,0.0406,0.0402,0.0406,0.0408,0.0417,0.0423,0.0436,0.0446,0.0449,0.0452,0.047,0.0467,0.0462,0.0479,0.0471,0.0472,0.0482,0.0484,0.0486,0.0487,0.0459,0,0,0,0,0,0.0418,0.0405,0.0405,0.0402,0.0408,0.0414,0.0419,0.0428,0.0436,0.0444,0.0454,0.0464,0.0469,0.0475,0.048,0.0486,0.0498,0.0493,0.0495,0.0497,0.0498,0.0535,0.0541,0.0479,0.0479,0.0479,0,0,0.0421,0.0413,0.0406,0.0403,0.0409,0.0409,0.042,0.0433,0.0435,0.0444,0.046,0.0473,0.0473,0.0484,0.0491,0.0486,0.052,0.0498,0.0499,0.05,0.0537,0.0543,0.0549,0.048,0.048,0.048,0,0,0.0418,0.0417,0.0407,0.0408,0.0417,0.0419,0.0426,0.0438,0.0451,0.0464,0.0472,0.0495,0.05,0.0506,0.0506,0.0521,0.053,0.0522,0.0531,0.0567,0.0573,0.0578,0.0598,0.0604,0.0521,0.0521,0.0521,0,0.0426,0.0409,0.0408,0.0403,0.0409,0.0423,0.0425,0.0431,0.0448,0.0463,0.0475,0.0504,0.051,0.0519,0.0527,0.0526,0.0543,0.0522,0.057,0.0576,0.0581,0.06,0.0607,0.0522,0.0522,0.0522,0.0521,0,0.0409,0.0405,0.0405,0.0394,0.0401,0.0408,0.0417,0.0434,0.0456,0.0467,0.0501,0.0517,0.0537,0.0541,0.0537,0.057,0.0569,0.0571,0.0566,0.0588,0.0607,0.0614,0.0523,0.0523,0.0522,0.0522,0,0,0.0409,0.0394,0.0397,0.0395,0.0401,0.0406,0.0416,0.0433,0.045,0.0479,0.0506,0.0525,0.0552,0.0555,0.0562,0.0589,0.0639,0.0596,0.0597,0.0617,0.0713,0.0587,0.0583,0.0654,0.0656,0.0657,0.0711,0,0.0402,0.0389,0.0386,0.0384,0.0383,0.0401,0.0408,0.0428,0.0455,0.0485,0.0515,0.0543,0.0549,0.057,0.06,0.0629,0.066,0.0624,0.0687,0.0688,0.0576,0.0588,0.046,0.0486,0.0718,0.0719,0.072,0,0.0391,0.0382,0.038,0.0382,0.0387,0.0393,0.0425,0.0433,0.0471,0.0497,0.0536,0.0558,0.0598,0.0606,0.0675,0.0654,0.0688,0.071,0.0713,0.0594,0.0575,0.0502,0.049,0.0732,0.0731,0.073,0.073,0,0.0395,0.0383,0.0384,0.0383,0.0385,0.0403,0.0417,0.045,0.0472,0.0515,0.0542,0.0585,0.062,0.0669,0.0709,0.0705,0.0781,0.0783,0.0702,0.0693,0.0593,0.0572,0.0843,0.0842,0.0842,0.0842,0.0842,0,0.0389,0.0394,0.0388,0.039,0.0409,0.0409,0.0448,0.0468,0.05,0.0532,0.0556,0.0589,0.0643,0.0684,0.072,0.0719,0.0796,0.07,0.0697,0.0592,0.0571,0.0791,0.0784,0.0844,0.0844,0.0843,0.0843,0,0.0404,0.0396,0.0402,0.0405,0.0415,0.0437,0.0477,0.0499,0.0521,0.0564,0.0579,0.0612,0.0654,0.0687,0.0761,0.0719,0.0741,0.0728,0.0583,0.0559,0.063,0.0624,0.0638,0.0634,0.0631,0.0628,0.0626,0,0.0409,0.041,0.0426,0.0437,0.0449,0.0478,0.0505,0.0528,0.0545,0.0579,0.0596,0.0632,0.0637,0.0654,0.0588,0.0581,0.0698,0.0466,0.0419,0.0612,0.0609,0.0608,0.0606,0.031,0.0305,0.0301,0.0298,0,0.042,0.0435,0.0437,0.046,0.0489,0.0517,0.0547,0.056,0.0579,0.0585,0.0596,0.0593,0.0551,0.0434,0.0373,0.0372,0.0442,0.038,0.0651,0.0354,0.0299,0.0297,0.0307,0.0263,0.0267,0.0269,0.0271,0.0273,0.044,0.0443,0.0447,0.0466,0.0506,0.0532,0.0528,0.0541,0.0543,0.0479,0.0521,0.0386,0.0315,0.0081,0.0123,0.0133,0.0182,0.0162,0.0177,0.0195,0.0119,0.0058,-0.0036,-0.0034,-0.0033,-0.0031,-0.003,0,0.0436,0.0432,0.0447,0.0458,0.0477,0.052,0.0528,0.0482,0.0447,0.036,0.0294,0.003,-0.0104,-0.01,-0.0187,-0.0188,-0.0136,-0.0133,-0.0078,-0.0049,-0.0021,-0.0102,-0.0318,-0.0317,-0.0317,-0.0317,0,0,0.043,0.0414,0.0403,0.0404,0.0433,0.0432,0.0424,0.0354,0.0259,0.0101,-0.0084,-0.0258,-0.0266,-0.0397,-0.0344,-0.0323,-0.0161,-0.031,-0.0103,-0.0016,0.0014,0.0099,-0.0002,0,0,0,0,0]},{"header":{"parameterUnit":"m.s-1","parameterCategory":2,"la1":30.2991,"la2":30.254,"lo1":-89.0895,"lo2":-89.0444,"dy":0.0017,"dx":0.0017,"nx":28,"ny":28,"refTime":"2024-03-15T21:00:00:Z","depth":"2","parameterNumber":3,"parameterNumberName":"V-component_of_CURRENTS"},"data":[0,0,0,0,0,0,0,0,0,0,0,0,0,0,0,0,0,0,0,0,0,0,0,0,0,0,0,0,0,0,0,0,0,0,0,0,0,0,0,0,0,0,0,0,0,0,0,0,0,0,0,0,0,0,0,0,0,0,0.0238,0.0238,0,0.0251,0.0251,0.0252,0.0228,0.0227,0.0226,0.0225,0.022,0.0221,0.0222,0,0,0,0,0,0,0,0,0,0,0,0,0,0.0223,0.0223,0.0238,0.0238,0.0238,0.0251,0.0251,0.0252,0.0228,0.0227,0.0226,0.0225,0.022,0.0221,0.0222,0,0,0,0,0,0,0,0,0,0,0,0,0,0.0233,0.0223,0.0238,0.0228,0.0227,0.0251,0.0251,0.0252,0.0228,0.0227,0.0226,0.0225,0.022,0.0221,0.0222,0.0253,0,0,0.0225,0.0225,0,0,0,0,0,0,0,0,0.0232,0.0233,0.0229,0.0228,0.0228,0.0236,0.0244,0.0251,0.0229,0.0228,0.0225,0.0224,0.0225,0.0225,0.0231,0.0253,0.0253,0.0225,0.0225,0.0226,0.0226,0,0,0,0,0,0,0,0.0231,0.0233,0.0244,0.0229,0.0228,0.0233,0.0232,0.0246,0.0233,0.0228,0.0226,0.0227,0.0224,0.0231,0.0231,0.0253,0.0225,0.0226,0.0226,0.0227,0.0258,0.0258,0,0,0,0,0,0,0.0229,0.0232,0.0243,0.0244,0.0226,0.0234,0.0234,0.0235,0.0234,0.0232,0.0229,0.0226,0.0229,0.023,0.0231,0.0237,0.0226,0.0227,0.0227,0.0258,0.0258,0.0259,0,0,0,0,0,0,0.0228,0.023,0.0243,0.0238,0.024,0.0235,0.0237,0.0236,0.0227,0.0234,0.0232,0.0218,0.0228,0.0229,0.0238,0.0237,0.0227,0.0228,0.0258,0.0258,0.0258,0.0269,0,0,0,0,0,0,0.0228,0.0229,0.0227,0.0238,0.024,0.0249,0.0238,0.0237,0.023,0.0227,0.0225,0.0224,0.0228,0.0237,0.0239,0.0239,0.0229,0.0257,0.0258,0.0258,0.0268,0.027,0.0271,0,0,0,0,0,0.0227,0.0232,0.0227,0.0228,0.0238,0.0249,0.025,0.0243,0.0231,0.023,0.0232,0.0223,0.0241,0.0239,0.0241,0.024,0.0257,0.0258,0.0258,0.0268,0.0269,0.0271,0,0,0,0,0,0,0.0213,0.0231,0.0225,0.023,0.0234,0.0244,0.0246,0.0239,0.0241,0.0232,0.0235,0.0236,0.0243,0.0242,0.0239,0.025,0.0244,0.0246,0.0251,0.0252,0.0254,0.0263,0.023,0,0,0,0,0,0.0212,0.0225,0.0232,0.0234,0.0238,0.0239,0.0241,0.0233,0.0238,0.0236,0.0236,0.0239,0.0252,0.0251,0.0261,0.0271,0.0285,0.027,0.0271,0.0272,0.0281,0.0317,0.0322,0.026,0.026,0.026,0,0,0.0205,0.0217,0.0221,0.0233,0.0237,0.0246,0.0237,0.0235,0.024,0.0237,0.0242,0.0246,0.0257,0.0269,0.0271,0.0265,0.0293,0.0273,0.0274,0.0283,0.0318,0.0324,0.033,0.0261,0.0261,0.0261,0,0,0.0208,0.021,0.0224,0.0232,0.0237,0.0242,0.0238,0.0241,0.0239,0.0246,0.0249,0.0258,0.0264,0.0281,0.029,0.0306,0.0303,0.0292,0.0303,0.0337,0.0343,0.0348,0.0359,0.0366,0.0288,0.0288,0.0288,0,0.0191,0.0216,0.0226,0.0242,0.0249,0.0239,0.0249,0.0253,0.0254,0.0265,0.0244,0.0276,0.0277,0.0314,0.0311,0.0311,0.0318,0.0296,0.034,0.0345,0.0351,0.0361,0.0368,0.0288,0.0288,0.0288,0.0288,0,0.0211,0.0225,0.0234,0.0254,0.0262,0.0267,0.0275,0.0277,0.0268,0.0276,0.0297,0.0304,0.0323,0.0319,0.0317,0.0352,0.034,0.0342,0.0338,0.0358,0.0367,0.0374,0.0289,0.0289,0.0289,0.0289,0,0,0.0188,0.0237,0.0238,0.0257,0.0268,0.028,0.0292,0.0313,0.0329,0.0323,0.0351,0.0364,0.0359,0.0369,0.0367,0.0386,0.0418,0.037,0.0372,0.0385,0.0475,0.0506,0.0516,0.0424,0.0425,0.0426,0.0462,0,0.0195,0.0234,0.0254,0.0281,0.0304,0.0309,0.0328,0.0342,0.035,0.0373,0.0384,0.0401,0.0381,0.038,0.0402,0.0419,0.0439,0.0408,0.0451,0.0452,0.0481,0.0527,0.0483,0.0515,0.0468,0.0469,0.047,0,0.0209,0.0239,0.027,0.0317,0.0325,0.0332,0.0367,0.0381,0.0414,0.0418,0.0437,0.0439,0.0466,0.0441,0.0488,0.0464,0.0471,0.048,0.0482,0.0516,0.0498,0.049,0.0529,0.0482,0.0481,0.048,0.0479,0,0.0204,0.0251,0.0279,0.0292,0.0335,0.0347,0.0361,0.0392,0.0409,0.044,0.0446,0.0486,0.0483,0.0518,0.0519,0.0505,0.0569,0.0557,0.0595,0.0596,0.0573,0.057,0.0603,0.0603,0.0603,0.0603,0.0602,0,0.0212,0.0236,0.0279,0.0293,0.0326,0.0351,0.0375,0.0398,0.0426,0.0446,0.0461,0.0477,0.0499,0.0527,0.0544,0.0593,0.0592,0.0616,0.0621,0.0573,0.057,0.0553,0.0547,0.0604,0.0604,0.0603,0.0603,0,0.0207,0.0231,0.0273,0.0317,0.0324,0.0347,0.0367,0.0392,0.0409,0.0434,0.0437,0.0467,0.0503,0.0533,0.0582,0.0616,0.0667,0.068,0.0612,0.0611,0.0662,0.0656,0.0746,0.0747,0.0749,0.075,0.0751,0,0.0212,0.0233,0.0279,0.0294,0.0309,0.0334,0.0348,0.0375,0.0388,0.0428,0.0437,0.0472,0.0529,0.0621,0.0666,0.0734,0.0691,0.0718,0.0705,0.0688,0.0684,0.0675,0.0667,0.0661,0.0661,0.0661,0.0661,0,0.0231,0.0242,0.0272,0.0296,0.0312,0.0341,0.0353,0.0358,0.0387,0.0415,0.0462,0.0524,0.0605,0.0669,0.0744,0.0767,0.0713,0.0727,0.0738,0.0642,0.0615,0.0608,0.0602,0.0663,0.0663,0.0662,0.0662,0.0662,0.0241,0.0263,0.0288,0.0309,0.0326,0.0346,0.0364,0.0368,0.0399,0.0437,0.0499,0.0573,0.0676,0.0783,0.0786,0.0732,0.0787,0.075,0.0747,0.0744,0.0739,0.0717,0.0781,0.0782,0.0782,0.0782,0.0783,0,0.0263,0.0276,0.0299,0.0333,0.0354,0.0351,0.037,0.0377,0.04,0.0442,0.0518,0.0614,0.0715,0.072,0.0676,0.0738,0.0695,0.0676,0.0601,0.0603,0.0604,0.0587,0.0592,0.0591,0.059,0.0589,0,0,0.0277,0.0301,0.031,0.035,0.0361,0.0396,0.0405,0.039,0.0402,0.0432,0.0465,0.0675,0.0734,0.0674,0.0701,0.06,0.0576,0.0574,0.0735,0.0647,0.0646,0.067,0.0651,0,0,0,0,0]}],[{"header":{"parameterUnit":"m.s-1","parameterCategory":2,"la1":30.2991,"la2":30.254,"lo1":-89.0895,"lo2":-89.0444,"dy":0.0017,"dx":0.0017,"nx":28,"ny":28,"refTime":"2024-03-15T21:00:00:Z","depth":"4","parameterNumber":2,"parameterNumberName":"U-component_of_CURRENTS"},"data":[0,0,0,0,0,0,0,0,0,0,0,0,0,0,0,0,0,0,0,0,0,0,0,0,0,0,0,0,0,0,0,0,0,0,0,0,0,0,0,0,0,0,0,0,0,0,0,0,0,0,0,0,0,0,0,0,0,0,-0.0389,-0.0389,0,-0.0402,-0.0402,-0.0403,-0.0414,-0.0414,-0.0414,-0.0415,-0.0428,-0.0428,-0.0429,0,0,0,0,0,0,0,0,0,0,0,0,0,-0.0365,-0.0366,-0.0389,-0.0389,-0.0389,-0.0402,-0.0402,-0.0403,-0.0414,-0.0414,-0.0414,-0.0415,-0.0428,-0.0428,-0.0429,0,0,0,0,0,0,0,0,0,0,0,0,0,-0.0377,-0.0366,-0.0389,-0.0396,-0.0397,-0.0402,-0.0402,-0.0403,-0.0414,-0.0414,-0.0414,-0.0415,-0.0428,-0.0428,-0.0429,-0.0428,0,0,-0.043,-0.043,0,0,0,0,0,0,0,0,-0.0377,-0.0378,-0.0395,-0.0396,-0.0397,-0.0406,-0.0399,-0.0411,-0.0414,-0.0408,-0.0415,-0.0415,-0.042,-0.0421,-0.0424,-0.0429,-0.0429,-0.043,-0.043,-0.043,-0.043,0,0,0,0,0,0,0,-0.0376,-0.0378,-0.0394,-0.0395,-0.0396,-0.0396,-0.0398,-0.0401,-0.0413,-0.0409,-0.0409,-0.041,-0.0421,-0.0424,-0.0425,-0.0429,-0.043,-0.043,-0.043,-0.0431,-0.0429,-0.0429,0,0,0,0,0,0,-0.0374,-0.0377,-0.0394,-0.0395,-0.0386,-0.0397,-0.0399,-0.0403,-0.0413,-0.0415,-0.041,-0.0411,-0.0423,-0.0424,-0.0425,-0.0426,-0.043,-0.0431,-0.0431,-0.043,-0.0429,-0.0429,0,0,0,0,0,0,-0.0373,-0.0375,-0.0393,-0.0386,-0.0388,-0.0397,-0.0402,-0.0404,-0.041,-0.0415,-0.0416,-0.0416,-0.0423,-0.0424,-0.0433,-0.0427,-0.0431,-0.0431,-0.043,-0.0429,-0.0429,-0.0428,0,0,0,0,0,0,-0.0373,-0.0375,-0.0382,-0.0386,-0.0388,-0.04,-0.0402,-0.0404,-0.041,-0.0411,-0.042,-0.0421,-0.0423,-0.0433,-0.0434,-0.0427,-0.0431,-0.043,-0.043,-0.0429,-0.0428,-0.0427,-0.0427,0,0,0,0,0,-0.0372,-0.0378,-0.0383,-0.0385,-0.0396,-0.04,-0.0402,-0.0408,-0.041,-0.0415,-0.0421,-0.0421,-0.0429,-0.0433,-0.0434,-0.0428,-0.043,-0.043,-0.0429,-0.0428,-0.0427,-0.0427,0,0,0,0,0,0,-0.0366,-0.0379,-0.0385,-0.0394,-0.0399,-0.0402,-0.0407,-0.041,-0.0418,-0.0421,-0.0424,-0.0426,-0.0432,-0.0429,-0.0433,-0.0425,-0.0427,-0.0427,-0.0426,-0.0425,-0.0424,-0.0423,-0.0432,0,0,0,0,0,-0.0369,-0.0382,-0.0388,-0.0396,-0.0398,-0.0403,-0.0407,-0.0411,-0.0417,-0.0421,-0.0428,-0.0429,-0.0429,-0.0427,-0.0432,-0.0429,-0.0422,-0.0423,-0.0422,-0.0422,-0.0421,-0.0396,-0.0393,-0.0427,-0.0427,-0.0427,0,0,-0.037,-0.0379,-0.0386,-0.0397,-0.0401,-0.0405,-0.0406,-0.0412,-0.0417,-0.042,-0.0433,-0.0434,-0.0429,-0.0429,-0.0429,-0.0426,-0.0411,-0.0421,-0.0421,-0.042,-0.0395,-0.0392,-0.0389,-0.0426,-0.0427,-0.0427,0,0,-0.0374,-0.0384,-0.0395,-0.04,-0.0409,-0.041,-0.0412,-0.042,-0.0425,-0.0435,-0.0435,-0.0432,-0.0439,-0.0429,-0.0424,-0.0421,-0.0414,-0.0419,-0.0408,-0.0384,-0.0381,-0.0378,-0.0377,-0.0374,-0.0411,-0.0411,-0.0411,0,-0.0374,-0.0389,-0.0397,-0.0405,-0.0409,-0.0412,-0.0417,-0.042,-0.0432,-0.0431,-0.044,-0.0435,-0.0436,-0.0418,-0.0417,-0.0419,-0.0411,-0.0413,-0.0383,-0.038,-0.0377,-0.0377,-0.0373,-0.0411,-0.0411,-0.0411,-0.0411,0,-0.0383,-0.0396,-0.0399,-0.0413,-0.0417,-0.0422,-0.0425,-0.0429,-0.0435,-0.0437,-0.0434,-0.0433,-0.0424,-0.0422,-0.042,-0.0395,-0.0399,-0.0391,-0.0386,-0.0374,-0.0374,-0.0371,-0.0411,-0.0411,-0.0411,-0.0411,0,0,-0.0373,-0.0402,-0.0403,-0.0412,-0.0422,-0.0424,-0.0427,-0.0426,-0.042,-0.043,-0.0423,-0.0418,-0.0412,-0.0406,-0.0397,-0.0377,-0.0358,-0.0374,-0.0373,-0.0374,-0.0318,-0.0337,-0.0336,-0.034,-0.0339,-0.0338,-0.0331,0,-0.0375,-0.0395,-0.0407,-0.0419,-0.0425,-0.0428,-0.0429,-0.0428,-0.0426,-0.0421,-0.0411,-0.0404,-0.0406,-0.0396,-0.0377,-0.0366,-0.0347,-0.0361,-0.0329,-0.0328,-0.0347,-0.0331,-0.0336,-0.0329,-0.0328,-0.0327,-0.0327,0,-0.0375,-0.039,-0.0405,-0.0422,-0.0423,-0.0428,-0.0419,-0.0424,-0.0411,-0.0407,-0.0392,-0.0387,-0.0366,-0.0366,-0.0336,-0.0344,-0.0329,-0.0321,-0.032,-0.0334,-0.034,-0.0339,-0.0321,-0.0321,-0.0322,-0.0322,-0.0322,0,-0.036,-0.0384,-0.0397,-0.0403,-0.042,-0.042,-0.0426,-0.0417,-0.0414,-0.0394,-0.0384,-0.0363,-0.0353,-0.0329,-0.0326,-0.032,-0.0301,-0.0286,-0.0291,-0.0293,-0.028,-0.0282,-0.0253,-0.0253,-0.0253,-0.0253,-0.0253,0,-0.0353,-0.0364,-0.0391,-0.0398,-0.0401,-0.0417,-0.041,-0.0407,-0.04,-0.0392,-0.0375,-0.0362,-0.0339,-0.0332,-0.0322,-0.0311,-0.0295,-0.0289,-0.0286,-0.0282,-0.0285,-0.0278,-0.0281,-0.0253,-0.0253,-0.0253,-0.0253,0,-0.0336,-0.0357,-0.0371,-0.0391,-0.0396,-0.0398,-0.0407,-0.0399,-0.0393,-0.0381,-0.0373,-0.0358,-0.0348,-0.0342,-0.0315,-0.0306,-0.0293,-0.0291,-0.031,-0.0309,-0.0299,-0.0302,-0.0277,-0.0277,-0.0278,-0.0278,-0.0279,0,-0.0332,-0.0339,-0.0362,-0.0369,-0.038,-0.0386,-0.0387,-0.039,-0.0385,-0.0381,-0.0376,-0.0365,-0.0356,-0.0339,-0.0334,-0.032,-0.0313,-0.0304,-0.0275,-0.0299,-0.0299,-0.0301,-0.0304,-0.0279,-0.0279,-0.0279,-0.0279,0,-0.032,-0.0329,-0.0339,-0.0357,-0.0362,-0.0367,-0.0376,-0.037,-0.0375,-0.0367,-0.036,-0.0351,-0.0348,-0.0339,-0.034,-0.0327,-0.0307,-0.0307,-0.0305,-0.0278,-0.0301,-0.0301,-0.0303,-0.0281,-0.0281,-0.0281,-0.028,0,-0.0306,-0.0308,-0.0327,-0.0337,-0.0351,-0.0359,-0.0359,-0.0361,-0.0357,-0.0354,-0.0357,-0.0353,-0.0352,-0.0344,-0.0347,-0.0341,-0.0319,-0.0294,-0.0292,-0.0291,-0.03,-0.0331,-0.0314,0,0,0,0,0,-0.0286,-0.0293,-0.0311,-0.0328,-0.0347,-0.0359,-0.036,-0.036,-0.036,-0.0348,-0.0353,-0.0351,-0.0344,-0.0346,-0.0338,-0.0353,-0.0325,-0.0343,-0.0297,-0.0289,-0.0287,-0.0297,0,0,0,0,0,0,-0.0276,-0.0288,-0.0304,-0.0326,-0.0343,-0.0361,-0.0362,-0.0361,-0.0356,-0.0354,-0.0351,-0.0344,-0.0343,-0.0353,-0.0339,-0.0339,-0.0306,-0.0342,-0.0342,-0.029,-0.0288,-0.0287,-0.0296,0,0,0,0,0]},{"header":{"parameterUnit":"m.s-1","parameterCategory":2,"la1":30.2991,"la2":30.254,"lo1":-89.0895,"lo2":-89.0444,"dy":0.0017,"dx":0.0017,"nx":28,"ny":28,"refTime":"2024-03-15T21:00:00:Z","depth":"4","parameterNumber":3,"parameterNumberName":"V-component_of_CURRENTS"},"data":[0,0,0,0,0,0,0,0,0,0,0,0,0,0,0,0,0,0,0,0,0,0,0,0,0,0,0,0,0,0,0,0,0,0,0,0,0,0,0,0,0,0,0,0,0,0,0,0,0,0,0,0,0,0,0,0,0,0,0.0362,0.0362,0,0.0396,0.0397,0.0397,0.0418,0.0418,0.0418,0.0418,0.0451,0.0452,0.0453,0,0,0,0,0,0,0,0,0,0,0,0,0,0.0316,0.0317,0.0361,0.0362,0.0362,0.0396,0.0397,0.0397,0.0418,0.0418,0.0418,0.0418,0.0451,0.0452,0.0453,0,0,0,0,0,0,0,0,0,0,0,0,0,0.0342,0.0317,0.0361,0.0376,0.0378,0.0396,0.0397,0.0398,0.0418,0.0418,0.0418,0.0418,0.0451,0.0452,0.0453,0.0461,0,0,0.0457,0.0458,0,0,0,0,0,0,0,0,0.0341,0.0344,0.0373,0.0375,0.0377,0.0402,0.0393,0.0418,0.0418,0.0403,0.0418,0.0418,0.0434,0.0437,0.0444,0.0462,0.0464,0.0457,0.0458,0.0459,0.0459,0,0,0,0,0,0,0,0.0339,0.0343,0.0376,0.0374,0.0376,0.0382,0.0386,0.0398,0.0419,0.0405,0.0406,0.0409,0.0435,0.0443,0.0445,0.0464,0.0457,0.0458,0.0459,0.046,0.0514,0.0515,0,0,0,0,0,0,0.0333,0.0341,0.0375,0.0377,0.0358,0.0383,0.0387,0.0395,0.0419,0.0422,0.0409,0.041,0.0441,0.0444,0.0446,0.0478,0.0459,0.046,0.046,0.0514,0.0514,0.0515,0,0,0,0,0,0,0.0332,0.0336,0.0373,0.0359,0.0364,0.0383,0.0392,0.0395,0.0411,0.0422,0.0425,0.0421,0.0441,0.0445,0.0467,0.0478,0.046,0.0461,0.0513,0.0514,0.0515,0.0527,0,0,0,0,0,0,0.0331,0.0336,0.0342,0.0359,0.0365,0.0389,0.0392,0.0396,0.0412,0.0413,0.0433,0.0436,0.0441,0.0465,0.0469,0.048,0.0463,0.0512,0.0513,0.0514,0.0526,0.0528,0.0531,0,0,0,0,0,0.0329,0.0341,0.0342,0.0347,0.0372,0.0389,0.0393,0.0407,0.0412,0.0421,0.0437,0.0436,0.0476,0.0467,0.0471,0.0483,0.0511,0.0513,0.0514,0.0525,0.0528,0.0531,0,0,0,0,0,0,0.0328,0.0345,0.0347,0.0364,0.0375,0.0392,0.0403,0.0411,0.0431,0.0435,0.0446,0.045,0.0471,0.0478,0.0468,0.0503,0.0493,0.0495,0.05,0.0503,0.0505,0.0499,0.0464,0,0,0,0,0,0.0329,0.0342,0.0355,0.0369,0.0374,0.0389,0.0399,0.0407,0.0425,0.0434,0.0448,0.0465,0.0479,0.0492,0.0502,0.0525,0.0529,0.0535,0.0537,0.0539,0.0537,0.0547,0.055,0.052,0.052,0.052,0,0,0.0329,0.0343,0.0349,0.0369,0.038,0.039,0.0396,0.0412,0.0424,0.0434,0.0459,0.0471,0.0485,0.0508,0.0518,0.0517,0.0554,0.0541,0.0543,0.0539,0.0549,0.0552,0.0555,0.0521,0.0521,0.0521,0,0,0.0336,0.0351,0.036,0.0371,0.0388,0.0397,0.0403,0.0422,0.0435,0.0461,0.0467,0.0486,0.0516,0.0524,0.0534,0.0556,0.0561,0.0564,0.0577,0.0588,0.059,0.0592,0.0615,0.0619,0.0571,0.0571,0.0571,0,0.0334,0.0351,0.0365,0.0377,0.0388,0.0401,0.041,0.0425,0.0451,0.0463,0.0471,0.051,0.0522,0.0543,0.0555,0.0561,0.0573,0.0565,0.059,0.0592,0.0594,0.0617,0.0621,0.0572,0.0572,0.0572,0.0572,0,0.0342,0.0359,0.0368,0.0386,0.0398,0.0412,0.0428,0.0445,0.0464,0.0479,0.0507,0.0526,0.0549,0.0558,0.0567,0.0588,0.0595,0.0586,0.058,0.0598,0.0621,0.0625,0.0573,0.0573,0.0573,0.0572,0,0,0.0332,0.0365,0.037,0.038,0.0405,0.0417,0.0437,0.0459,0.0473,0.0502,0.0523,0.0554,0.0564,0.0575,0.0585,0.06,0.063,0.0605,0.0605,0.0624,0.0668,0.0631,0.0632,0.0628,0.0628,0.0629,0.0684,0,0.0333,0.0357,0.0375,0.0397,0.0408,0.0429,0.0447,0.0469,0.0491,0.0514,0.0536,0.0562,0.057,0.0587,0.0601,0.0619,0.064,0.0617,0.0652,0.0653,0.0614,0.0634,0.063,0.0687,0.0688,0.0689,0.0689,0,0.0336,0.0353,0.0374,0.0406,0.0412,0.0429,0.0459,0.0477,0.0507,0.0528,0.0553,0.0569,0.06,0.06,0.0644,0.0631,0.0653,0.0666,0.0668,0.0629,0.0622,0.0663,0.0696,0.0696,0.0695,0.0695,0.0694,0,0.0325,0.0357,0.0376,0.0387,0.0418,0.0436,0.0456,0.0485,0.0505,0.0539,0.0563,0.0587,0.0617,0.0636,0.0673,0.0663,0.0717,0.0703,0.0692,0.069,0.0701,0.0698,0.0731,0.0731,0.0731,0.073,0.073,0,0.0323,0.0341,0.0376,0.0386,0.0412,0.0435,0.0464,0.0487,0.0518,0.0547,0.0574,0.06,0.0629,0.0663,0.068,0.0703,0.0727,0.0696,0.0698,0.0708,0.0705,0.0705,0.0701,0.0732,0.0732,0.0732,0.0731,0,0.0312,0.0335,0.036,0.0395,0.041,0.043,0.0475,0.0496,0.053,0.0569,0.0586,0.0625,0.0673,0.0702,0.074,0.072,0.0737,0.0742,0.0767,0.0769,0.0704,0.07,0.0726,0.0725,0.0724,0.0723,0.0723,0,0.0306,0.0318,0.0364,0.0385,0.0406,0.044,0.0467,0.0503,0.0525,0.0585,0.0603,0.0659,0.0688,0.0717,0.0737,0.0765,0.0758,0.0754,0.0708,0.0702,0.0702,0.07,0.0697,0.0722,0.0721,0.0721,0.0721,0,0.0291,0.0314,0.0333,0.0377,0.0413,0.0453,0.0492,0.0498,0.0545,0.0581,0.0615,0.0633,0.0686,0.0702,0.0734,0.0747,0.074,0.0745,0.0746,0.0703,0.0697,0.0697,0.0696,0.0718,0.0719,0.0719,0.0719,0,0.0283,0.0295,0.0328,0.0367,0.0416,0.0459,0.0474,0.0507,0.053,0.0581,0.0591,0.0651,0.0688,0.0695,0.072,0.0731,0.0716,0.0675,0.068,0.0683,0.064,0.0624,0.0627,0,0,0,0,0,0.0273,0.0292,0.0319,0.037,0.042,0.0455,0.0494,0.0505,0.0536,0.0554,0.0569,0.0617,0.0646,0.0663,0.0669,0.07,0.0718,0.0699,0.0673,0.0703,0.0706,0.0657,0,0,0,0,0,0,0.0272,0.0295,0.0311,0.037,0.0406,0.0466,0.0489,0.0509,0.051,0.0539,0.0562,0.0585,0.0627,0.0658,0.0665,0.0671,0.064,0.073,0.0728,0.0701,0.0704,0.0707,0.0657,0,0,0,0,0]}]]